Year,Month,Day,Hour,Minute,Value (Times are PST for windspeed in km/hr)
2008,06,10,00,00,0.20
2008,06,10,00,01,0.40
2008,06,10,00,02,2.20
2008,06,10,00,03,3.00
2008,06,10,00,04,2.70
2008,06,10,00,05,0.30
2008,06,10,00,06,0.60
2008,06,10,00,07,0.00
2008,06,10,00,08,0.30
2008,06,10,00,09,0.00
2008,06,10,00,10,0.00
2008,06,10,00,11,0.10
2008,06,10,00,12,0.00
2008,06,10,00,13,0.80
2008,06,10,00,14,2.90
2008,06,10,00,15,0.70
2008,06,10,00,16,0.00
2008,06,10,00,17,1.00
2008,06,10,00,18,0.30
2008,06,10,00,19,0.20
2008,06,10,00,20,0.00
2008,06,10,00,21,0.50
2008,06,10,00,22,1.10
2008,06,10,00,23,2.90
2008,06,10,00,24,3.20
2008,06,10,00,25,3.90
2008,06,10,00,26,2.80
2008,06,10,00,27,3.40
2008,06,10,00,28,3.30
2008,06,10,00,29,4.40
2008,06,10,00,30,5.60
2008,06,10,00,31,2.90
2008,06,10,00,32,5.70
2008,06,10,00,33,5.10
2008,06,10,00,34,4.90
2008,06,10,00,35,5.40
2008,06,10,00,36,3.10
2008,06,10,00,37,4.90
2008,06,10,00,38,4.30
2008,06,10,00,39,9.70
2008,06,10,00,40,7.70
2008,06,10,00,41,6.70
2008,06,10,00,42,8.20
2008,06,10,00,43,7.90
2008,06,10,00,44,10.60
2008,06,10,00,45,6.70
2008,06,10,00,46,3.60
2008,06,10,00,47,5.00
2008,06,10,00,48,6.20
2008,06,10,00,49,5.40
2008,06,10,00,50,6.70
2008,06,10,00,51,7.90
2008,06,10,00,52,7.00
2008,06,10,00,53,7.90
2008,06,10,00,54,9.10
2008,06,10,00,55,11.40
2008,06,10,00,56,4.90
2008,06,10,00,57,8.40
2008,06,10,00,58,11.70
2008,06,10,00,59,9.60
2008,06,10,01,00,7.50
2008,06,10,01,01,8.40
2008,06,10,01,02,5.40
2008,06,10,01,03,6.40
2008,06,10,01,04,3.90
2008,06,10,01,05,6.10
2008,06,10,01,06,7.40
2008,06,10,01,07,5.90
2008,06,10,01,08,4.60
2008,06,10,01,09,4.70
2008,06,10,01,10,7.30
2008,06,10,01,11,4.30
2008,06,10,01,12,4.60
2008,06,10,01,13,5.00
2008,06,10,01,14,6.20
2008,06,10,01,15,5.40
2008,06,10,01,16,6.40
2008,06,10,01,17,5.30
2008,06,10,01,18,5.70
2008,06,10,01,19,6.00
2008,06,10,01,20,7.40
2008,06,10,01,21,6.20
2008,06,10,01,22,4.20
2008,06,10,01,23,4.10
2008,06,10,01,24,5.10
2008,06,10,01,25,8.10
2008,06,10,01,26,5.90
2008,06,10,01,27,7.00
2008,06,10,01,28,5.70
2008,06,10,01,29,4.80
2008,06,10,01,30,6.70
2008,06,10,01,31,7.70
2008,06,10,01,32,5.90
2008,06,10,01,33,5.20
2008,06,10,01,34,3.90
2008,06,10,01,35,7.60
2008,06,10,01,36,7.80
2008,06,10,01,37,6.50
2008,06,10,01,38,8.10
2008,06,10,01,39,6.40
2008,06,10,01,40,7.70
2008,06,10,01,41,6.30
2008,06,10,01,42,7.10
2008,06,10,01,43,5.80
2008,06,10,01,44,5.50
2008,06,10,01,45,4.10
2008,06,10,01,46,1.90
2008,06,10,01,47,2.70
2008,06,10,01,48,5.10
2008,06,10,01,49,1.90
2008,06,10,01,50,5.20
2008,06,10,01,51,3.50
2008,06,10,01,52,2.90
2008,06,10,01,53,1.70
2008,06,10,01,54,1.10
2008,06,10,01,55,2.60
2008,06,10,01,56,1.40
2008,06,10,01,57,1.30
2008,06,10,01,58,0.90
2008,06,10,01,59,1.20
2008,06,10,02,00,0.00
2008,06,10,02,01,0.00
2008,06,10,02,02,0.40
2008,06,10,02,03,0.90
2008,06,10,02,04,0.20
2008,06,10,02,05,0.90
2008,06,10,02,06,5.70
2008,06,10,02,07,5.10
2008,06,10,02,08,3.90
2008,06,10,02,09,2.90
2008,06,10,02,10,2.40
2008,06,10,02,11,4.00
2008,06,10,02,12,5.20
2008,06,10,02,13,3.60
2008,06,10,02,14,4.30
2008,06,10,02,15,2.00
2008,06,10,02,16,1.10
2008,06,10,02,17,1.70
2008,06,10,02,18,4.00
2008,06,10,02,19,4.10
2008,06,10,02,20,3.00
2008,06,10,02,21,3.70
2008,06,10,02,22,1.90
2008,06,10,02,23,1.80
2008,06,10,02,24,0.90
2008,06,10,02,25,0.90
2008,06,10,02,26,1.60
2008,06,10,02,27,3.10
2008,06,10,02,28,3.40
2008,06,10,02,29,2.30
2008,06,10,02,30,0.40
2008,06,10,02,31,1.40
2008,06,10,02,32,2.80
2008,06,10,02,33,1.50
2008,06,10,02,34,0.00
2008,06,10,02,35,0.20
2008,06,10,02,36,0.60
2008,06,10,02,37,0.00
2008,06,10,02,38,0.00
2008,06,10,02,39,0.10
2008,06,10,02,40,0.10
2008,06,10,02,41,1.50
2008,06,10,02,42,2.30
2008,06,10,02,43,3.00
2008,06,10,02,44,3.20
2008,06,10,02,45,3.70
2008,06,10,02,46,0.30
2008,06,10,02,47,0.20
2008,06,10,02,48,1.00
2008,06,10,02,49,2.50
2008,06,10,02,50,0.90
2008,06,10,02,51,3.80
2008,06,10,02,52,1.80
2008,06,10,02,53,0.70
2008,06,10,02,54,0.00
2008,06,10,02,55,0.60
2008,06,10,02,56,0.20
2008,06,10,02,57,1.50
2008,06,10,02,58,1.80
2008,06,10,02,59,5.10
2008,06,10,03,00,0.50
2008,06,10,03,01,2.20
2008,06,10,03,02,3.10
2008,06,10,03,03,2.90
2008,06,10,03,04,1.80
2008,06,10,03,05,1.30
2008,06,10,03,06,3.70
2008,06,10,03,07,3.20
2008,06,10,03,08,3.50
2008,06,10,03,09,3.60
2008,06,10,03,10,6.20
2008,06,10,03,11,4.10
2008,06,10,03,12,3.00
2008,06,10,03,13,2.90
2008,06,10,03,14,4.40
2008,06,10,03,15,3.40
2008,06,10,03,16,2.40
2008,06,10,03,17,4.30
2008,06,10,03,18,3.10
2008,06,10,03,19,3.60
2008,06,10,03,20,1.50
2008,06,10,03,21,3.30
2008,06,10,03,22,1.90
2008,06,10,03,23,0.60
2008,06,10,03,24,2.50
2008,06,10,03,25,2.00
2008,06,10,03,26,1.90
2008,06,10,03,27,2.70
2008,06,10,03,28,2.10
2008,06,10,03,29,3.80
2008,06,10,03,30,6.40
2008,06,10,03,31,6.40
2008,06,10,03,32,4.30
2008,06,10,03,33,6.70
2008,06,10,03,34,5.00
2008,06,10,03,35,0.50
2008,06,10,03,36,3.80
2008,06,10,03,37,4.50
2008,06,10,03,38,2.60
2008,06,10,03,39,5.70
2008,06,10,03,40,4.80
2008,06,10,03,41,4.20
2008,06,10,03,42,3.10
2008,06,10,03,43,6.00
2008,06,10,03,44,4.10
2008,06,10,03,45,4.80
2008,06,10,03,46,5.20
2008,06,10,03,47,5.80
2008,06,10,03,48,6.00
2008,06,10,03,49,5.20
2008,06,10,03,50,5.40
2008,06,10,03,51,7.10
2008,06,10,03,52,7.00
2008,06,10,03,53,6.10
2008,06,10,03,54,5.90
2008,06,10,03,55,6.90
2008,06,10,03,56,7.90
2008,06,10,03,57,6.10
2008,06,10,03,58,7.50
2008,06,10,03,59,8.00
2008,06,10,04,00,6.50
2008,06,10,04,01,7.00
2008,06,10,04,02,8.10
2008,06,10,04,03,8.10
2008,06,10,04,04,7.00
2008,06,10,04,05,6.70
2008,06,10,04,06,6.70
2008,06,10,04,07,7.00
2008,06,10,04,08,6.50
2008,06,10,04,09,8.60
2008,06,10,04,10,9.60
2008,06,10,04,11,8.80
2008,06,10,04,12,8.50
2008,06,10,04,13,7.50
2008,06,10,04,14,10.30
2008,06,10,04,15,10.10
2008,06,10,04,16,8.00
2008,06,10,04,17,6.40
2008,06,10,04,18,8.70
2008,06,10,04,19,9.30
2008,06,10,04,20,10.30
2008,06,10,04,21,11.20
2008,06,10,04,22,10.70
2008,06,10,04,23,9.20
2008,06,10,04,24,8.00
2008,06,10,04,25,6.80
2008,06,10,04,26,8.10
2008,06,10,04,27,8.10
2008,06,10,04,28,8.60
2008,06,10,04,29,10.50
2008,06,10,04,30,7.10
2008,06,10,04,31,7.60
2008,06,10,04,32,6.90
2008,06,10,04,33,7.30
2008,06,10,04,34,7.80
2008,06,10,04,35,4.20
2008,06,10,04,36,3.40
2008,06,10,04,37,3.60
2008,06,10,04,38,3.40
2008,06,10,04,39,3.00
2008,06,10,04,40,4.70
2008,06,10,04,41,4.00
2008,06,10,04,42,1.20
2008,06,10,04,43,2.50
2008,06,10,04,44,3.70
2008,06,10,04,45,4.50
2008,06,10,04,46,4.70
2008,06,10,04,47,1.80
2008,06,10,04,48,1.50
2008,06,10,04,49,2.70
2008,06,10,04,50,1.40
2008,06,10,04,51,1.50
2008,06,10,04,52,2.10
2008,06,10,04,53,0.00
2008,06,10,04,54,3.10
2008,06,10,04,55,1.20
2008,06,10,04,56,1.10
2008,06,10,04,57,0.10
2008,06,10,04,58,0.70
2008,06,10,04,59,0.20
2008,06,10,05,00,0.30
2008,06,10,05,01,0.00
2008,06,10,05,02,1.20
2008,06,10,05,03,0.50
2008,06,10,05,04,3.00
2008,06,10,05,05,3.30
2008,06,10,05,06,2.50
2008,06,10,05,07,0.60
2008,06,10,05,08,2.20
2008,06,10,05,09,3.50
2008,06,10,05,10,1.00
2008,06,10,05,11,0.10
2008,06,10,05,12,0.60
2008,06,10,05,13,0.00
2008,06,10,05,14,0.00
2008,06,10,05,15,0.10
2008,06,10,05,16,0.30
2008,06,10,05,17,1.70
2008,06,10,05,18,2.00
2008,06,10,05,19,1.70
2008,06,10,05,20,1.90
2008,06,10,05,21,3.60
2008,06,10,05,22,4.60
2008,06,10,05,23,4.70
2008,06,10,05,24,4.20
2008,06,10,05,25,3.00
2008,06,10,05,26,1.70
2008,06,10,05,27,0.80
2008,06,10,05,28,2.50
2008,06,10,05,29,3.60
2008,06,10,05,30,0.60
2008,06,10,05,31,0.00
2008,06,10,05,32,0.00
2008,06,10,05,33,2.50
2008,06,10,05,34,0.20
2008,06,10,05,35,0.00
2008,06,10,05,36,0.00
2008,06,10,05,37,0.00
2008,06,10,05,38,0.00
2008,06,10,05,39,0.00
2008,06,10,05,40,0.00
2008,06,10,05,41,0.10
2008,06,10,05,42,0.10
2008,06,10,05,43,0.60
2008,06,10,05,44,1.20
2008,06,10,05,45,1.20
2008,06,10,05,46,2.00
2008,06,10,05,47,2.20
2008,06,10,05,48,0.00
2008,06,10,05,49,0.10
2008,06,10,05,50,0.20
2008,06,10,05,51,0.40
2008,06,10,05,52,0.20
2008,06,10,05,53,4.00
2008,06,10,05,54,2.50
2008,06,10,05,55,0.60
2008,06,10,05,56,1.10
2008,06,10,05,57,0.20
2008,06,10,05,58,0.00
2008,06,10,05,59,0.00
2008,06,10,06,00,1.40
2008,06,10,06,01,0.60
2008,06,10,06,02,0.60
2008,06,10,06,03,0.00
2008,06,10,06,04,0.10
2008,06,10,06,05,0.00
2008,06,10,06,06,0.00
2008,06,10,06,07,0.10
2008,06,10,06,08,0.00
2008,06,10,06,09,0.00
2008,06,10,06,10,2.60
2008,06,10,06,11,2.00
2008,06,10,06,12,1.50
2008,06,10,06,13,1.00
2008,06,10,06,14,1.50
2008,06,10,06,15,2.00
2008,06,10,06,16,2.80
2008,06,10,06,17,2.70
2008,06,10,06,18,2.20
2008,06,10,06,19,0.00
2008,06,10,06,20,0.80
2008,06,10,06,21,0.30
2008,06,10,06,22,0.00
2008,06,10,06,23,0.00
2008,06,10,06,24,0.10
2008,06,10,06,25,0.00
2008,06,10,06,26,0.00
2008,06,10,06,27,0.00
2008,06,10,06,28,0.00
2008,06,10,06,29,0.60
2008,06,10,06,30,0.20
2008,06,10,06,31,1.20
2008,06,10,06,32,0.00
2008,06,10,06,33,0.00
2008,06,10,06,34,0.00
2008,06,10,06,35,0.00
2008,06,10,06,36,0.00
2008,06,10,06,37,0.00
2008,06,10,06,38,0.00
2008,06,10,06,39,0.00
2008,06,10,06,40,0.00
2008,06,10,06,41,0.00
2008,06,10,06,42,0.00
2008,06,10,06,43,0.10
2008,06,10,06,44,0.00
2008,06,10,06,45,0.00
2008,06,10,06,46,0.00
2008,06,10,06,47,0.00
2008,06,10,06,48,0.00
2008,06,10,06,49,0.40
2008,06,10,06,50,2.90
2008,06,10,06,51,1.70
2008,06,10,06,52,0.20
2008,06,10,06,53,0.00
2008,06,10,06,54,0.10
2008,06,10,06,55,0.00
2008,06,10,06,56,1.30
2008,06,10,06,57,1.00
2008,06,10,06,58,0.00
2008,06,10,06,59,0.00
2008,06,10,07,00,2.40
2008,06,10,07,01,1.90
2008,06,10,07,02,2.10
2008,06,10,07,03,0.00
2008,06,10,07,04,0.00
2008,06,10,07,05,0.00
2008,06,10,07,06,0.10
2008,06,10,07,07,0.10
2008,06,10,07,08,0.40
2008,06,10,07,09,1.20
2008,06,10,07,10,2.70
2008,06,10,07,11,3.60
2008,06,10,07,12,2.90
2008,06,10,07,13,3.40
2008,06,10,07,14,1.60
2008,06,10,07,15,1.70
2008,06,10,07,16,0.00
2008,06,10,07,17,0.00
2008,06,10,07,18,0.00
2008,06,10,07,19,1.60
2008,06,10,07,20,1.80
2008,06,10,07,21,0.40
2008,06,10,07,22,0.80
2008,06,10,07,23,0.30
2008,06,10,07,24,0.80
2008,06,10,07,25,0.00
2008,06,10,07,26,1.60
2008,06,10,07,27,1.30
2008,06,10,07,28,4.10
2008,06,10,07,29,3.70
2008,06,10,07,30,3.00
2008,06,10,07,31,1.80
2008,06,10,07,32,0.00
2008,06,10,07,33,0.10
2008,06,10,07,34,0.60
2008,06,10,07,35,0.10
2008,06,10,07,36,0.10
2008,06,10,07,37,0.70
2008,06,10,07,38,2.40
2008,06,10,07,39,1.90
2008,06,10,07,40,2.20
2008,06,10,07,41,0.40
2008,06,10,07,42,0.00
2008,06,10,07,43,0.60
2008,06,10,07,44,3.00
2008,06,10,07,45,3.70
2008,06,10,07,46,5.70
2008,06,10,07,47,5.70
2008,06,10,07,48,3.60
2008,06,10,07,49,0.50
2008,06,10,07,50,0.10
2008,06,10,07,51,0.30
2008,06,10,07,52,2.20
2008,06,10,07,53,0.70
2008,06,10,07,54,0.90
2008,06,10,07,55,3.00
2008,06,10,07,56,2.40
2008,06,10,07,57,1.80
2008,06,10,07,58,2.80
2008,06,10,07,59,1.60
2008,06,10,08,00,0.50
2008,06,10,08,01,1.20
2008,06,10,08,02,0.60
2008,06,10,08,03,0.00
2008,06,10,08,04,0.00
2008,06,10,08,05,0.20
2008,06,10,08,06,0.10
2008,06,10,08,07,0.30
2008,06,10,08,08,0.30
2008,06,10,08,09,0.10
2008,06,10,08,10,1.00
2008,06,10,08,11,0.40
2008,06,10,08,12,0.00
2008,06,10,08,13,0.10
2008,06,10,08,14,0.30
2008,06,10,08,15,0.40
2008,06,10,08,16,1.70
2008,06,10,08,17,0.30
2008,06,10,08,18,0.10
2008,06,10,08,19,0.20
2008,06,10,08,20,0.00
2008,06,10,08,21,0.30
2008,06,10,08,22,3.30
2008,06,10,08,23,2.80
2008,06,10,08,24,2.30
2008,06,10,08,25,1.10
2008,06,10,08,26,1.20
2008,06,10,08,27,0.00
2008,06,10,08,28,3.20
2008,06,10,08,29,1.80
2008,06,10,08,30,3.60
2008,06,10,08,31,0.60
2008,06,10,08,32,0.70
2008,06,10,08,33,3.20
2008,06,10,08,34,4.50
2008,06,10,08,35,0.70
2008,06,10,08,36,1.50
2008,06,10,08,37,0.80
2008,06,10,08,38,0.80
2008,06,10,08,39,1.70
2008,06,10,08,40,1.90
2008,06,10,08,41,0.00
2008,06,10,08,42,1.90
2008,06,10,08,43,0.90
2008,06,10,08,44,2.30
2008,06,10,08,45,5.00
2008,06,10,08,46,1.40
2008,06,10,08,47,1.10
2008,06,10,08,48,4.50
2008,06,10,08,49,4.00
2008,06,10,08,50,4.20
2008,06,10,08,51,5.80
2008,06,10,08,52,4.70
2008,06,10,08,53,1.50
2008,06,10,08,54,0.40
2008,06,10,08,55,0.30
2008,06,10,08,56,2.90
2008,06,10,08,57,3.60
2008,06,10,08,58,3.20
2008,06,10,08,59,0.60
2008,06,10,09,00,1.30
2008,06,10,09,01,0.20
2008,06,10,09,02,1.10
2008,06,10,09,03,1.30
2008,06,10,09,04,1.20
2008,06,10,09,05,1.10
2008,06,10,09,06,3.60
2008,06,10,09,07,2.70
2008,06,10,09,08,0.00
2008,06,10,09,09,3.10
2008,06,10,09,10,1.30
2008,06,10,09,11,0.10
2008,06,10,09,12,0.00
2008,06,10,09,13,0.70
2008,06,10,09,14,3.90
2008,06,10,09,15,2.80
2008,06,10,09,16,3.20
2008,06,10,09,17,3.00
2008,06,10,09,18,2.40
2008,06,10,09,19,2.90
2008,06,10,09,20,4.20
2008,06,10,09,21,3.70
2008,06,10,09,22,2.90
2008,06,10,09,23,3.00
2008,06,10,09,24,3.20
2008,06,10,09,25,4.20
2008,06,10,09,26,3.80
2008,06,10,09,27,2.80
2008,06,10,09,28,1.10
2008,06,10,09,29,4.20
2008,06,10,09,30,0.40
2008,06,10,09,31,2.90
2008,06,10,09,32,0.30
2008,06,10,09,33,0.00
2008,06,10,09,34,0.00
2008,06,10,09,35,0.00
2008,06,10,09,36,0.50
2008,06,10,09,37,1.40
2008,06,10,09,38,3.20
2008,06,10,09,39,4.20
2008,06,10,09,40,3.40
2008,06,10,09,41,1.90
2008,06,10,09,42,1.60
2008,06,10,09,43,1.60
2008,06,10,09,44,0.30
2008,06,10,09,45,1.00
2008,06,10,09,46,0.00
2008,06,10,09,47,2.50
2008,06,10,09,48,1.70
2008,06,10,09,49,2.80
2008,06,10,09,50,2.00
2008,06,10,09,51,1.30
2008,06,10,09,52,2.90
2008,06,10,09,53,1.90
2008,06,10,09,54,2.80
2008,06,10,09,55,2.90
2008,06,10,09,56,3.90
2008,06,10,09,57,1.70
2008,06,10,09,58,3.30
2008,06,10,09,59,2.30
2008,06,10,10,00,3.30
2008,06,10,10,01,4.60
2008,06,10,10,02,3.80
2008,06,10,10,03,4.30
2008,06,10,10,04,3.40
2008,06,10,10,05,3.50
2008,06,10,10,06,3.40
2008,06,10,10,07,3.50
2008,06,10,10,08,1.10
2008,06,10,10,09,1.10
2008,06,10,10,10,0.10
2008,06,10,10,11,0.40
2008,06,10,10,12,0.20
2008,06,10,10,13,0.40
2008,06,10,10,14,2.00
2008,06,10,10,15,5.00
2008,06,10,10,16,5.00
2008,06,10,10,17,4.00
2008,06,10,10,18,4.60
2008,06,10,10,19,4.00
2008,06,10,10,20,4.40
2008,06,10,10,21,3.90
2008,06,10,10,22,2.30
2008,06,10,10,23,2.00
2008,06,10,10,24,2.80
2008,06,10,10,25,2.40
2008,06,10,10,26,1.20
2008,06,10,10,27,4.20
2008,06,10,10,28,5.50
2008,06,10,10,29,3.00
2008,06,10,10,30,0.80
2008,06,10,10,31,4.00
2008,06,10,10,32,3.70
2008,06,10,10,33,2.30
2008,06,10,10,34,5.40
2008,06,10,10,35,2.80
2008,06,10,10,36,4.10
2008,06,10,10,37,3.80
2008,06,10,10,38,1.00
2008,06,10,10,39,3.30
2008,06,10,10,40,2.40
2008,06,10,10,41,1.60
2008,06,10,10,42,2.90
2008,06,10,10,43,3.20
2008,06,10,10,44,3.00
2008,06,10,10,45,1.40
2008,06,10,10,46,3.10
2008,06,10,10,47,2.90
2008,06,10,10,48,1.80
2008,06,10,10,49,2.10
2008,06,10,10,50,4.30
2008,06,10,10,51,2.70
2008,06,10,10,52,1.30
2008,06,10,10,53,4.30
2008,06,10,10,54,3.20
2008,06,10,10,55,2.00
2008,06,10,10,56,3.00
2008,06,10,10,57,3.40
2008,06,10,10,58,2.20
2008,06,10,10,59,3.60
2008,06,10,11,00,1.10
2008,06,10,11,01,0.60
2008,06,10,11,02,1.60
2008,06,10,11,03,6.60
2008,06,10,11,04,5.50
2008,06,10,11,05,5.40
2008,06,10,11,06,5.40
2008,06,10,11,07,3.50
2008,06,10,11,08,4.30
2008,06,10,11,09,4.20
2008,06,10,11,10,5.80
2008,06,10,11,11,3.20
2008,06,10,11,12,6.70
2008,06,10,11,13,6.20
2008,06,10,11,14,7.40
2008,06,10,11,15,5.30
2008,06,10,11,16,4.70
2008,06,10,11,17,5.80
2008,06,10,11,18,5.20
2008,06,10,11,19,0.70
2008,06,10,11,20,3.20
2008,06,10,11,21,0.70
2008,06,10,11,22,3.30
2008,06,10,11,23,3.80
2008,06,10,11,24,4.80
2008,06,10,11,25,3.10
2008,06,10,11,26,6.60
2008,06,10,11,27,7.40
2008,06,10,11,28,6.40
2008,06,10,11,29,5.60
2008,06,10,11,30,5.90
2008,06,10,11,31,8.60
2008,06,10,11,32,7.60
2008,06,10,11,33,9.30
2008,06,10,11,34,8.00
2008,06,10,11,35,5.20
2008,06,10,11,36,8.40
2008,06,10,11,37,8.00
2008,06,10,11,38,3.10
2008,06,10,11,39,1.60
2008,06,10,11,40,2.50
2008,06,10,11,41,2.10
2008,06,10,11,42,1.70
2008,06,10,11,43,2.80
2008,06,10,11,44,2.10
2008,06,10,11,45,5.00
2008,06,10,11,46,8.50
2008,06,10,11,47,8.10
2008,06,10,11,48,6.30
2008,06,10,11,49,8.50
2008,06,10,11,50,7.50
2008,06,10,11,51,5.90
2008,06,10,11,52,3.70
2008,06,10,11,53,7.80
2008,06,10,11,54,5.10
2008,06,10,11,55,4.70
2008,06,10,11,56,7.00
2008,06,10,11,57,10.40
2008,06,10,11,58,10.00
2008,06,10,11,59,4.70
2008,06,10,12,00,4.70
2008,06,10,12,01,2.90
2008,06,10,12,02,11.30
2008,06,10,12,03,5.90
2008,06,10,12,04,7.30
2008,06,10,12,05,5.90
2008,06,10,12,06,9.20
2008,06,10,12,07,6.80
2008,06,10,12,08,7.70
2008,06,10,12,09,6.20
2008,06,10,12,10,6.40
2008,06,10,12,11,6.40
2008,06,10,12,12,4.70
2008,06,10,12,13,7.60
2008,06,10,12,14,7.50
2008,06,10,12,15,7.60
2008,06,10,12,16,3.60
2008,06,10,12,17,4.20
2008,06,10,12,18,3.80
2008,06,10,12,19,5.10
2008,06,10,12,20,4.70
2008,06,10,12,21,3.10
2008,06,10,12,22,5.10
2008,06,10,12,23,4.00
2008,06,10,12,24,7.00
2008,06,10,12,25,11.50
2008,06,10,12,26,10.30
2008,06,10,12,27,7.50
2008,06,10,12,28,6.70
2008,06,10,12,29,9.70
2008,06,10,12,30,7.20
2008,06,10,12,31,5.00
2008,06,10,12,32,4.60
2008,06,10,12,33,6.10
2008,06,10,12,34,2.40
2008,06,10,12,35,5.10
2008,06,10,12,36,7.80
2008,06,10,12,37,7.20
2008,06,10,12,38,6.90
2008,06,10,12,39,5.00
2008,06,10,12,40,3.10
2008,06,10,12,41,10.30
2008,06,10,12,42,7.50
2008,06,10,12,43,7.50
2008,06,10,12,44,7.00
2008,06,10,12,45,10.60
2008,06,10,12,46,8.10
2008,06,10,12,47,7.30
2008,06,10,12,48,9.10
2008,06,10,12,49,8.70
2008,06,10,12,50,6.90
2008,06,10,12,51,5.80
2008,06,10,12,52,5.70
2008,06,10,12,53,6.10
2008,06,10,12,54,1.90
2008,06,10,12,55,6.20
2008,06,10,12,56,5.50
2008,06,10,12,57,10.80
2008,06,10,12,58,6.20
2008,06,10,12,59,7.00
2008,06,10,13,00,8.10
2008,06,10,13,01,9.50
2008,06,10,13,02,7.20
2008,06,10,13,03,4.80
2008,06,10,13,04,7.80
2008,06,10,13,05,5.40
2008,06,10,13,06,9.40
2008,06,10,13,07,10.10
2008,06,10,13,08,9.90
2008,06,10,13,09,4.80
2008,06,10,13,10,9.40
2008,06,10,13,11,6.90
2008,06,10,13,12,6.70
2008,06,10,13,13,1.60
2008,06,10,13,14,4.80
2008,06,10,13,15,3.10
2008,06,10,13,16,3.60
2008,06,10,13,17,6.40
2008,06,10,13,18,5.10
2008,06,10,13,19,4.60
2008,06,10,13,20,5.80
2008,06,10,13,21,5.20
2008,06,10,13,22,4.70
2008,06,10,13,23,7.30
2008,06,10,13,24,10.10
2008,06,10,13,25,9.20
2008,06,10,13,26,13.60
2008,06,10,13,27,8.10
2008,06,10,13,28,8.80
2008,06,10,13,29,9.70
2008,06,10,13,30,8.00
2008,06,10,13,31,8.00
2008,06,10,13,32,5.90
2008,06,10,13,33,6.50
2008,06,10,13,34,10.00
2008,06,10,13,35,12.00
2008,06,10,13,36,7.70
2008,06,10,13,37,8.60
2008,06,10,13,38,10.10
2008,06,10,13,39,5.10
2008,06,10,13,40,1.90
2008,06,10,13,41,2.20
2008,06,10,13,42,8.60
2008,06,10,13,43,10.00
2008,06,10,13,44,8.90
2008,06,10,13,45,8.80
2008,06,10,13,46,5.40
2008,06,10,13,47,8.30
2008,06,10,13,48,5.70
2008,06,10,13,49,5.90
2008,06,10,13,50,6.40
2008,06,10,13,51,7.20
2008,06,10,13,52,8.90
2008,06,10,13,53,3.70
2008,06,10,13,54,2.50
2008,06,10,13,55,4.70
2008,06,10,13,56,5.70
2008,06,10,13,57,8.90
2008,06,10,13,58,9.10
2008,06,10,13,59,9.60
2008,06,10,14,00,6.60
2008,06,10,14,01,5.30
2008,06,10,14,02,8.70
2008,06,10,14,03,8.50
2008,06,10,14,04,6.70
2008,06,10,14,05,4.70
2008,06,10,14,06,6.00
2008,06,10,14,07,10.20
2008,06,10,14,08,5.30
2008,06,10,14,09,6.20
2008,06,10,14,10,12.20
2008,06,10,14,11,9.00
2008,06,10,14,12,9.60
2008,06,10,14,13,8.70
2008,06,10,14,14,8.90
2008,06,10,14,15,7.80
2008,06,10,14,16,5.90
2008,06,10,14,17,3.40
2008,06,10,14,18,3.70
2008,06,10,14,19,8.20
2008,06,10,14,20,4.70
2008,06,10,14,21,1.10
2008,06,10,14,22,1.90
2008,06,10,14,23,4.10
2008,06,10,14,24,9.00
2008,06,10,14,25,7.70
2008,06,10,14,26,6.60
2008,06,10,14,27,3.90
2008,06,10,14,28,3.60
2008,06,10,14,29,4.70
2008,06,10,14,30,7.30
2008,06,10,14,31,12.50
2008,06,10,14,32,9.70
2008,06,10,14,33,9.90
2008,06,10,14,34,4.70
2008,06,10,14,35,6.40
2008,06,10,14,36,5.30
2008,06,10,14,37,6.90
2008,06,10,14,38,5.80
2008,06,10,14,39,5.50
2008,06,10,14,40,6.40
2008,06,10,14,41,7.20
2008,06,10,14,42,6.20
2008,06,10,14,43,8.60
2008,06,10,14,44,8.10
2008,06,10,14,45,7.70
2008,06,10,14,46,6.60
2008,06,10,14,47,6.80
2008,06,10,14,48,7.80
2008,06,10,14,49,8.30
2008,06,10,14,50,3.40
2008,06,10,14,51,1.80
2008,06,10,14,52,6.10
2008,06,10,14,53,8.80
2008,06,10,14,54,7.50
2008,06,10,14,55,7.50
2008,06,10,14,56,13.60
2008,06,10,14,57,8.00
2008,06,10,14,58,4.60
2008,06,10,14,59,4.40
2008,06,10,15,00,5.10
2008,06,10,15,01,6.50
2008,06,10,15,02,8.40
2008,06,10,15,03,8.60
2008,06,10,15,04,11.50
2008,06,10,15,05,9.40
2008,06,10,15,06,4.90
2008,06,10,15,07,8.00
2008,06,10,15,08,5.30
2008,06,10,15,09,7.50
2008,06,10,15,10,6.40
2008,06,10,15,11,6.90
2008,06,10,15,12,7.00
2008,06,10,15,13,3.70
2008,06,10,15,14,6.20
2008,06,10,15,15,5.60
2008,06,10,15,16,7.20
2008,06,10,15,17,6.50
2008,06,10,15,18,5.10
2008,06,10,15,19,4.50
2008,06,10,15,20,7.50
2008,06,10,15,21,5.60
2008,06,10,15,22,4.60
2008,06,10,15,23,0.80
2008,06,10,15,24,0.50
2008,06,10,15,25,2.50
2008,06,10,15,26,1.30
2008,06,10,15,27,3.80
2008,06,10,15,28,7.00
2008,06,10,15,29,6.20
2008,06,10,15,30,6.20
2008,06,10,15,31,5.90
2008,06,10,15,32,8.10
2008,06,10,15,33,3.40
2008,06,10,15,34,6.90
2008,06,10,15,35,6.10
2008,06,10,15,36,4.60
2008,06,10,15,37,9.30
2008,06,10,15,38,8.40
2008,06,10,15,39,6.50
2008,06,10,15,40,10.90
2008,06,10,15,41,8.50
2008,06,10,15,42,6.50
2008,06,10,15,43,4.80
2008,06,10,15,44,4.80
2008,06,10,15,45,6.50
2008,06,10,15,46,7.10
2008,06,10,15,47,7.40
2008,06,10,15,48,7.20
2008,06,10,15,49,7.10
2008,06,10,15,50,5.60
2008,06,10,15,51,4.30
2008,06,10,15,52,4.50
2008,06,10,15,53,5.10
2008,06,10,15,54,3.70
2008,06,10,15,55,9.40
2008,06,10,15,56,5.80
2008,06,10,15,57,7.90
2008,06,10,15,58,8.40
2008,06,10,15,59,6.20
2008,06,10,16,00,3.50
2008,06,10,16,01,6.10
2008,06,10,16,02,5.30
2008,06,10,16,03,9.10
2008,06,10,16,04,6.00
2008,06,10,16,05,1.60
2008,06,10,16,06,1.90
2008,06,10,16,07,5.10
2008,06,10,16,08,6.90
2008,06,10,16,09,8.60
2008,06,10,16,10,8.00
2008,06,10,16,11,5.10
2008,06,10,16,12,6.70
2008,06,10,16,13,7.70
2008,06,10,16,14,9.10
2008,06,10,16,15,8.90
2008,06,10,16,16,9.90
2008,06,10,16,17,6.90
2008,06,10,16,18,3.60
2008,06,10,16,19,9.20
2008,06,10,16,20,7.20
2008,06,10,16,21,4.60
2008,06,10,16,22,4.60
2008,06,10,16,23,3.10
2008,06,10,16,24,9.50
2008,06,10,16,25,7.10
2008,06,10,16,26,5.00
2008,06,10,16,27,3.60
2008,06,10,16,28,6.80
2008,06,10,16,29,1.40
2008,06,10,16,30,3.00
2008,06,10,16,31,2.40
2008,06,10,16,32,4.50
2008,06,10,16,33,7.40
2008,06,10,16,34,10.50
2008,06,10,16,35,10.20
2008,06,10,16,36,8.30
2008,06,10,16,37,4.10
2008,06,10,16,38,1.40
2008,06,10,16,39,6.20
2008,06,10,16,40,7.20
2008,06,10,16,41,8.60
2008,06,10,16,42,7.90
2008,06,10,16,43,4.70
2008,06,10,16,44,8.40
2008,06,10,16,45,8.40
2008,06,10,16,46,4.30
2008,06,10,16,47,1.90
2008,06,10,16,48,1.30
2008,06,10,16,49,1.90
2008,06,10,16,50,3.40
2008,06,10,16,51,4.80
2008,06,10,16,52,9.70
2008,06,10,16,53,9.20
2008,06,10,16,54,8.00
2008,06,10,16,55,8.10
2008,06,10,16,56,8.20
2008,06,10,16,57,10.50
2008,06,10,16,58,10.50
2008,06,10,16,59,6.40
2008,06,10,17,00,0.60
2008,06,10,17,01,2.40
2008,06,10,17,02,9.30
2008,06,10,17,03,9.20
2008,06,10,17,04,7.50
2008,06,10,17,05,5.80
2008,06,10,17,06,6.80
2008,06,10,17,07,7.30
2008,06,10,17,08,6.80
2008,06,10,17,09,6.90
2008,06,10,17,10,1.30
2008,06,10,17,11,2.20
2008,06,10,17,12,5.20
2008,06,10,17,13,6.40
2008,06,10,17,14,6.50
2008,06,10,17,15,5.80
2008,06,10,17,16,6.90
2008,06,10,17,17,8.90
2008,06,10,17,18,9.70
2008,06,10,17,19,10.00
2008,06,10,17,20,8.10
2008,06,10,17,21,7.80
2008,06,10,17,22,2.00
2008,06,10,17,23,2.80
2008,06,10,17,24,3.50
2008,06,10,17,25,3.50
2008,06,10,17,26,2.50
2008,06,10,17,27,1.70
2008,06,10,17,28,8.40
2008,06,10,17,29,9.30
2008,06,10,17,30,6.10
2008,06,10,17,31,6.20
2008,06,10,17,32,6.30
2008,06,10,17,33,8.30
2008,06,10,17,34,10.10
2008,06,10,17,35,8.30
2008,06,10,17,36,3.50
2008,06,10,17,37,5.30
2008,06,10,17,38,7.70
2008,06,10,17,39,4.20
2008,06,10,17,40,1.90
2008,06,10,17,41,3.10
2008,06,10,17,42,9.00
2008,06,10,17,43,9.30
2008,06,10,17,44,4.60
2008,06,10,17,45,10.00
2008,06,10,17,46,4.40
2008,06,10,17,47,2.30
2008,06,10,17,48,3.60
2008,06,10,17,49,7.50
2008,06,10,17,50,8.20
2008,06,10,17,51,6.80
2008,06,10,17,52,8.00
2008,06,10,17,53,7.00
2008,06,10,17,54,6.90
2008,06,10,17,55,4.50
2008,06,10,17,56,3.00
2008,06,10,17,57,5.70
2008,06,10,17,58,8.10
2008,06,10,17,59,7.20
2008,06,10,18,00,6.40
2008,06,10,18,01,3.90
2008,06,10,18,02,6.60
2008,06,10,18,03,4.30
2008,06,10,18,04,3.40